Location: Denver
(39.7392°N, 104.9903°W)
Time: 04:33:26
(UTC-07:00)

ISS - Pass Details

Date: 02 June 2018
Orbit: 411 x 421 km, 51.6° (Epoch: 06 December)

Event Time Altitude Azimuth Distance (km) Brightness Sun altitude
Rises 22:50:35 0° 296° (WNW) 2,345 1.0 -21.2°
Reaches altitude 10° 22:52:59 10° 280° (W) 1,476 -0.5 -21.4°
Enters shadow 22:54:44 20° 251° (WSW) 1,026 -1.7 -21.6°
